PRIVATE WETTERSTATION BILLIGHEIM-ALLFELD                       ZURCK
Wetterdaten: Sonntag, 14.05.2017
Datum Zeit Temp. A. Temp. A. min Temp. A. max Feuchte A. Luftdruck Regen Wind Richtung Richtung Sonnenschein ET Solar Taupunkt Windchill Windben Empfang
14.05.2017 00:00 13,2 C 13,2 C 13,3 C 90 % 1015,5 hPa 0,2 l/m 0,0 km/h (0 Bft) N 0 0 min 0,000 mm 0 W/m 11,6 C 13,2 C 0,0 km/h (0 Bft) 100 %
14.05.2017 00:10 13,0 C 13,0 C 13,2 C 90 % 1015,5 hPa 0,0 l/m 0,0 km/h (0 Bft) N 0 0 min 0,000 mm 0 W/m 11,4 C 13,0 C 0,0 km/h (0 Bft) 100 %
14.05.2017 00:20 12,9 C 12,9 C 13,0 C 90 % 1015,7 hPa 0,0 l/m 0,0 km/h (0 Bft) N 0 0 min 0,000 mm 0 W/m 11,3 C 12,9 C 0,0 km/h (0 Bft) 100 %
14.05.2017 00:30 12,9 C 12,9 C 12,9 C 90 % 1015,7 hPa 0,0 l/m 3,2 km/h (1 Bft) SO 135 0 min 0,000 mm 0 W/m 11,3 C 12,9 C 6,4 km/h (2 Bft) 100 %
14.05.2017 00:40 12,9 C 12,9 C 12,9 C 90 % 1015,9 hPa 0,0 l/m 0,0 km/h (0 Bft) SO 135 0 min 0,000 mm 0 W/m 11,3 C 12,9 C 3,2 km/h (1 Bft) 100 %
14.05.2017 00:50 12,9 C 12,9 C 12,9 C 90 % 1015,9 hPa 0,0 l/m 0,0 km/h (0 Bft) SO 135 0 min 0,000 mm 0 W/m 11,3 C 12,9 C 1,6 km/h (1 Bft) 100 %
14.05.2017 01:00 13,0 C 12,9 C 13,0 C 90 % 1015,9 hPa 0,0 l/m 0,0 km/h (0 Bft) SO 135 0 min 0,000 mm 0 W/m 11,4 C 13,0 C 3,2 km/h (1 Bft) 100 %
14.05.2017 01:10 13,0 C 13,0 C 13,0 C 90 % 1015,9 hPa 0,0 l/m 0,0 km/h (0 Bft) SO 135 0 min 0,000 mm 0 W/m 11,4 C 13,0 C 1,6 km/h (1 Bft) 100 %
14.05.2017 01:20 12,9 C 12,9 C 13,0 C 90 % 1016,0 hPa 0,0 l/m 0,0 km/h (0 Bft) N 0 0 min 0,000 mm 0 W/m 11,3 C 12,9 C 0,0 km/h (0 Bft) 100 %
14.05.2017 01:30 12,9 C 12,9 C 12,9 C 90 % 1016,1 hPa 0,0 l/m 0,0 km/h (0 Bft) N 0 0 min 0,000 mm 0 W/m 11,3 C 12,9 C 0,0 km/h (0 Bft) 100 %
14.05.2017 01:40 12,9 C 12,9 C 12,9 C 90 % 1016,3 hPa 0,0 l/m 0,0 km/h (0 Bft) N 0 0 min 0,000 mm 0 W/m 11,3 C 12,9 C 0,0 km/h (0 Bft) 100 %
14.05.2017 01:50 12,8 C 12,8 C 12,9 C 90 % 1016,4 hPa 0,0 l/m 1,6 km/h (1 Bft) SW 225 0 min 0,000 mm 0 W/m 11,2 C 12,8 C 8,0 km/h (2 Bft) 100 %
14.05.2017 02:00 12,9 C 12,8 C 12,9 C 90 % 1016,5 hPa 0,0 l/m 3,2 km/h (1 Bft) S-SW 202 0 min 0,000 mm 0 W/m 11,3 C 12,9 C 8,0 km/h (2 Bft) 100 %
14.05.2017 02:10 12,9 C 12,9 C 12,9 C 91 % 1016,6 hPa 0,0 l/m 1,6 km/h (1 Bft) SW 225 0 min 0,000 mm 0 W/m 11,5 C 12,9 C 8,0 km/h (2 Bft) 92 %
14.05.2017 02:20 12,9 C 12,9 C 12,9 C 90 % 1016,6 hPa 0,0 l/m 3,2 km/h (1 Bft) S-SW 202 0 min 0,000 mm 0 W/m 11,3 C 12,9 C 9,7 km/h (2 Bft) 100 %
14.05.2017 02:30 13,0 C 12,9 C 13,0 C 90 % 1016,6 hPa 0,0 l/m 1,6 km/h (1 Bft) SW 225 0 min 0,000 mm 0 W/m 11,4 C 13,0 C 11,3 km/h (2 Bft) 100 %
14.05.2017 02:40 13,1 C 13,0 C 13,1 C 90 % 1016,7 hPa 0,0 l/m 1,6 km/h (1 Bft) W-SW 247 0 min 0,000 mm 0 W/m 11,5 C 13,1 C 8,0 km/h (2 Bft) 100 %
14.05.2017 02:50 13,1 C 13,0 C 13,1 C 90 % 1016,7 hPa 0,0 l/m 0,0 km/h (0 Bft) W-SW 247 0 min 0,000 mm 0 W/m 11,5 C 13,1 C 6,4 km/h (2 Bft) 100 %
14.05.2017 03:00 13,0 C 13,0 C 13,1 C 91 % 1016,8 hPa 0,0 l/m 0,0 km/h (0 Bft) N 0 0 min 0,000 mm 0 W/m 11,6 C 13,0 C 0,0 km/h (0 Bft) 100 %
14.05.2017 03:10 13,0 C 12,9 C 13,0 C 91 % 1016,8 hPa 0,0 l/m 0,0 km/h (0 Bft) SW 225 0 min 0,000 mm 0 W/m 11,6 C 13,0 C 4,8 km/h (1 Bft) 99 %
14.05.2017 03:20 12,9 C 12,9 C 13,0 C 90 % 1016,9 hPa 0,0 l/m 0,0 km/h (0 Bft) N 0 0 min 0,000 mm 0 W/m 11,3 C 12,9 C 0,0 km/h (0 Bft) 100 %
14.05.2017 03:30 12,9 C 12,8 C 12,9 C 90 % 1016,9 hPa 0,0 l/m 0,0 km/h (0 Bft) N 0 0 min 0,000 mm 0 W/m 11,3 C 12,9 C 0,0 km/h (0 Bft) 100 %
14.05.2017 03:40 12,8 C 12,8 C 12,9 C 90 % 1017,0 hPa 0,0 l/m 0,0 km/h (0 Bft) N 0 0 min 0,000 mm 0 W/m 11,2 C 12,8 C 0,0 km/h (0 Bft) 100 %
14.05.2017 03:50 12,8 C 12,8 C 12,8 C 90 % 1017,1 hPa 0,0 l/m 0,0 km/h (0 Bft) SW 225 0 min 0,000 mm 0 W/m 11,2 C 12,8 C 4,8 km/h (1 Bft) 100 %
14.05.2017 04:00 12,8 C 12,8 C 12,8 C 90 % 1017,1 hPa 0,0 l/m 1,6 km/h (1 Bft) SW 225 0 min 0,000 mm 0 W/m 11,2 C 12,8 C 8,0 km/h (2 Bft) 100 %
14.05.2017 04:10 12,9 C 12,8 C 12,9 C 90 % 1017,3 hPa 0,0 l/m 3,2 km/h (1 Bft) SW 225 0 min 0,000 mm 0 W/m 11,3 C 12,9 C 11,3 km/h (2 Bft) 100 %
14.05.2017 04:20 12,9 C 12,9 C 12,9 C 90 % 1017,4 hPa 0,0 l/m 1,6 km/h (1 Bft) W-SW 247 0 min 0,000 mm 0 W/m 11,3 C 12,9 C 9,7 km/h (2 Bft) 100 %
14.05.2017 04:30 12,8 C 12,8 C 12,9 C 91 % 1017,4 hPa 0,0 l/m 0,0 km/h (0 Bft) W-SW 247 0 min 0,000 mm 0 W/m 11,4 C 12,8 C 4,8 km/h (1 Bft) 100 %
14.05.2017 04:40 12,8 C 12,8 C 12,8 C 91 % 1017,6 hPa 0,0 l/m 0,0 km/h (0 Bft) W-SW 247 0 min 0,000 mm 0 W/m 11,4 C 12,8 C 4,8 km/h (1 Bft) 100 %
14.05.2017 04:50 12,7 C 12,7 C 12,8 C 91 % 1017,5 hPa 0,0 l/m 0,0 km/h (0 Bft) W-SW 247 0 min 0,000 mm 0 W/m 11,3 C 12,7 C 4,8 km/h (1 Bft) 100 %
14.05.2017 05:00 12,7 C 12,7 C 12,7 C 91 % 1017,7 hPa 0,0 l/m 1,6 km/h (1 Bft) W-SW 247 0 min 0,000 mm 0 W/m 11,3 C 12,7 C 6,4 km/h (2 Bft) 100 %
14.05.2017 05:10 12,7 C 12,7 C 12,7 C 91 % 1017,7 hPa 0,0 l/m 1,6 km/h (1 Bft) SW 225 0 min 0,000 mm 0 W/m 11,3 C 12,7 C 6,4 km/h (2 Bft) 99 %
14.05.2017 05:20 12,6 C 12,6 C 12,7 C 91 % 1017,7 hPa 0,0 l/m 0,0 km/h (0 Bft) N 0 0 min 0,000 mm 0 W/m 11,2 C 12,6 C 0,0 km/h (0 Bft) 100 %
14.05.2017 05:30 12,6 C 12,6 C 12,6 C 91 % 1017,7 hPa 0,0 l/m 0,0 km/h (0 Bft) N 0 0 min 0,000 mm 0 W/m 11,2 C 12,6 C 0,0 km/h (0 Bft) 100 %
14.05.2017 05:40 12,6 C 12,6 C 12,6 C 91 % 1017,8 hPa 0,0 l/m 0,0 km/h (0 Bft) N 0 0 min 0,000 mm 0 W/m 11,2 C 12,6 C 0,0 km/h (0 Bft) 100 %
14.05.2017 05:50 12,6 C 12,6 C 12,6 C 91 % 1017,9 hPa 0,0 l/m 1,6 km/h (1 Bft) SW 225 0 min 0,000 mm 0 W/m 11,2 C 12,6 C 4,8 km/h (1 Bft) 100 %
14.05.2017 06:00 12,6 C 12,6 C 12,6 C 91 % 1018,0 hPa 0,0 l/m 0,0 km/h (0 Bft) N 0 0 min 0,000 mm 5 W/m 11,2 C 12,6 C 0,0 km/h (0 Bft) 100 %
14.05.2017 06:10 12,6 C 12,6 C 12,6 C 91 % 1018,2 hPa 0,0 l/m 0,0 km/h (0 Bft) N 0 0 min 0,000 mm 11 W/m 11,2 C 12,6 C 0,0 km/h (0 Bft) 100 %
14.05.2017 06:20 12,6 C 12,6 C 12,6 C 91 % 1018,3 hPa 0,0 l/m 0,0 km/h (0 Bft) N 0 0 min 0,000 mm 16 W/m 11,2 C 12,6 C 0,0 km/h (0 Bft) 100 %
14.05.2017 06:30 12,6 C 12,6 C 12,6 C 91 % 1018,4 hPa 0,0 l/m 0,0 km/h (0 Bft) SW 225 0 min 0,000 mm 25 W/m 11,2 C 12,6 C 3,2 km/h (1 Bft) 100 %
14.05.2017 06:40 12,7 C 12,6 C 12,7 C 91 % 1018,5 hPa 0,0 l/m 0,0 km/h (0 Bft) N 0 0 min 0,000 mm 32 W/m 11,3 C 12,7 C 0,0 km/h (0 Bft) 100 %
14.05.2017 06:50 12,7 C 12,7 C 12,7 C 91 % 1018,6 hPa 0,0 l/m 0,0 km/h (0 Bft) SW 225 0 min 0,000 mm 44 W/m 11,3 C 12,7 C 1,6 km/h (1 Bft) 100 %
14.05.2017 07:00 12,8 C 12,7 C 12,8 C 91 % 1018,7 hPa 0,0 l/m 0,0 km/h (0 Bft) N 0 0 min 0,025 mm 62 W/m 11,4 C 12,8 C 0,0 km/h (0 Bft) 100 %
14.05.2017 07:10 12,9 C 12,8 C 12,9 C 91 % 1018,7 hPa 0,0 l/m 1,6 km/h (1 Bft) SW 225 0 min 0,000 mm 72 W/m 11,5 C 12,9 C 4,8 km/h (1 Bft) 100 %
14.05.2017 07:20 13,1 C 12,9 C 13,1 C 91 % 1018,7 hPa 0,0 l/m 1,6 km/h (1 Bft) SW 225 0 min 0,000 mm 74 W/m 11,7 C 13,1 C 6,4 km/h (2 Bft) 100 %
14.05.2017 07:30 13,2 C 13,1 C 13,2 C 91 % 1018,8 hPa 0,0 l/m 3,2 km/h (1 Bft) W-SW 247 0 min 0,000 mm 97 W/m 11,8 C 13,2 C 11,3 km/h (2 Bft) 100 %
14.05.2017 07:40 13,4 C 13,2 C 13,4 C 91 % 1018,9 hPa 0,0 l/m 1,6 km/h (1 Bft) W-SW 247 0 min 0,000 mm 141 W/m 12,0 C 13,4 C 9,7 km/h (2 Bft) 100 %
14.05.2017 07:50 13,6 C 13,4 C 13,6 C 91 % 1019,0 hPa 0,0 l/m 3,2 km/h (1 Bft) W-SW 247 0 min 0,000 mm 128 W/m 12,2 C 13,6 C 9,7 km/h (2 Bft) 100 %
14.05.2017 08:00 13,5 C 13,5 C 13,6 C 91 % 1019,1 hPa 0,0 l/m 3,2 km/h (1 Bft) W 270 0 min 0,051 mm 79 W/m 12,1 C 13,5 C 9,7 km/h (2 Bft) 100 %
14.05.2017 08:10 13,5 C 13,5 C 13,6 C 91 % 1019,2 hPa 0,0 l/m 1,6 km/h (1 Bft) W 270 0 min 0,000 mm 81 W/m 12,1 C 13,5 C 6,4 km/h (2 Bft) 100 %
14.05.2017 08:20 13,6 C 13,5 C 13,6 C 91 % 1019,3 hPa 0,0 l/m 0,0 km/h (0 Bft) N 0 0 min 0,000 mm 102 W/m 12,2 C 13,6 C 0,0 km/h (0 Bft) 100 %
14.05.2017 08:30 13,8 C 13,6 C 13,8 C 91 % 1019,3 hPa 0,0 l/m 0,0 km/h (0 Bft) W 270 10 min 0,000 mm 176 W/m 12,4 C 13,8 C 8,0 km/h (2 Bft) 100 %
14.05.2017 08:40 13,9 C 13,8 C 13,9 C 90 % 1019,4 hPa 0,0 l/m 1,6 km/h (1 Bft) W-SW 247 10 min 0,000 mm 190 W/m 12,3 C 13,9 C 8,0 km/h (2 Bft) 100 %
14.05.2017 08:50 14,1 C 13,9 C 14,1 C 90 % 1019,4 hPa 0,0 l/m 0,0 km/h (0 Bft) W-SW 247 10 min 0,000 mm 155 W/m 12,5 C 14,1 C 6,4 km/h (2 Bft) 100 %
14.05.2017 09:00 14,3 C 14,1 C 14,3 C 90 % 1019,4 hPa 0,0 l/m 0,0 km/h (0 Bft) W-SW 247 10 min 0,076 mm 200 W/m 12,7 C 14,3 C 6,4 km/h (2 Bft) 100 %
14.05.2017 09:10 14,4 C 14,3 C 14,4 C 90 % 1019,5 hPa 0,0 l/m 0,0 km/h (0 Bft) N 0 10 min 0,000 mm 192 W/m 12,8 C 14,4 C 0,0 km/h (0 Bft) 100 %
14.05.2017 09:20 14,6 C 14,4 C 14,6 C 90 % 1019,8 hPa 0,0 l/m 0,0 km/h (0 Bft) SW 225 10 min 0,000 mm 216 W/m 13,0 C 14,6 C 4,8 km/h (1 Bft) 100 %
14.05.2017 09:30 14,7 C 14,6 C 14,7 C 90 % 1019,9 hPa 0,0 l/m 3,2 km/h (1 Bft) SW 225 10 min 0,000 mm 239 W/m 13,1 C 14,7 C 8,0 km/h (2 Bft) 99 %
14.05.2017 09:40 14,7 C 14,7 C 14,7 C 89 % 1020,0 hPa 0,0 l/m 4,8 km/h (1 Bft) SW 225 10 min 0,000 mm 232 W/m 12,9 C 14,7 C 9,7 km/h (2 Bft) 100 %
14.05.2017 09:50 15,6 C 14,7 C 15,6 C 90 % 1020,1 hPa 0,0 l/m 3,2 km/h (1 Bft) S-SW 202 10 min 0,000 mm 930 W/m 14,0 C 15,6 C 14,5 km/h (3 Bft) 100 %
14.05.2017 10:00 15,9 C 15,6 C 15,9 C 89 % 1020,1 hPa 0,0 l/m 0,0 km/h (0 Bft) S 180 10 min 0,152 mm 803 W/m 14,1 C 15,9 C 1,6 km/h (1 Bft) 100 %
14.05.2017 10:10 16,4 C 15,9 C 16,4 C 86 % 1020,0 hPa 0,0 l/m 1,6 km/h (1 Bft) S 180 10 min 0,000 mm 847 W/m 14,1 C 16,4 C 9,7 km/h (2 Bft) 100 %
14.05.2017 10:20 17,0 C 16,4 C 17,0 C 87 % 1020,2 hPa 0,0 l/m 1,6 km/h (1 Bft) S-SW 202 10 min 0,000 mm 608 W/m 14,8 C 17,0 C 9,7 km/h (2 Bft) 100 %
14.05.2017 10:30 17,4 C 17,0 C 17,4 C 83 % 1020,2 hPa 0,0 l/m 0,0 km/h (0 Bft) S-SW 202 10 min 0,000 mm 819 W/m 14,5 C 17,4 C 6,4 km/h (2 Bft) 99 %
14.05.2017 10:40 17,6 C 17,4 C 17,6 C 83 % 1020,3 hPa 0,0 l/m 3,2 km/h (1 Bft) S-SW 202 10 min 0,000 mm 585 W/m 14,7 C 17,6 C 14,5 km/h (3 Bft) 100 %
14.05.2017 10:50 17,7 C 17,6 C 17,7 C 83 % 1020,4 hPa 0,0 l/m 6,4 km/h (2 Bft) S-SW 202 10 min 0,000 mm 455 W/m 14,8 C 17,7 C 16,1 km/h (3 Bft) 100 %
14.05.2017 11:00 17,9 C 17,7 C 17,9 C 82 % 1020,5 hPa 0,0 l/m 4,8 km/h (1 Bft) S-SW 202 10 min 0,279 mm 568 W/m 14,8 C 17,9 C 11,3 km/h (2 Bft) 100 %
14.05.2017 11:10 18,1 C 17,9 C 18,1 C 82 % 1020,5 hPa 0,0 l/m 3,2 km/h (1 Bft) SW 225 10 min 0,000 mm 429 W/m 15,0 C 18,1 C 9,7 km/h (2 Bft) 100 %
14.05.2017 11:20 18,4 C 18,1 C 18,4 C 80 % 1020,6 hPa 0,0 l/m 3,2 km/h (1 Bft) W-NW 292 10 min 0,000 mm 721 W/m 14,9 C 18,4 C 9,7 km/h (2 Bft) 100 %
14.05.2017 11:30 18,6 C 18,4 C 18,6 C 76 % 1020,6 hPa 0,0 l/m 1,6 km/h (1 Bft) W-NW 292 10 min 0,000 mm 577 W/m 14,3 C 18,6 C 11,3 km/h (2 Bft) 100 %
14.05.2017 11:40 18,6 C 18,6 C 18,6 C 76 % 1020,7 hPa 0,0 l/m 4,8 km/h (1 Bft) W 270 10 min 0,000 mm 322 W/m 14,3 C 18,6 C 9,7 km/h (2 Bft) 100 %
14.05.2017 11:50 18,6 C 18,5 C 18,6 C 79 % 1020,8 hPa 0,0 l/m 4,8 km/h (1 Bft) SW 225 10 min 0,000 mm 462 W/m 14,9 C 18,6 C 11,3 km/h (2 Bft) 100 %
14.05.2017 12:00 19,3 C 18,6 C 19,3 C 79 % 1020,8 hPa 0,0 l/m 6,4 km/h (2 Bft) SW 225 10 min 0,305 mm 1088 W/m 15,6 C 19,3 C 16,1 km/h (3 Bft) 100 %
14.05.2017 12:10 19,8 C 19,3 C 19,8 C 73 % 1020,7 hPa 0,0 l/m 4,8 km/h (1 Bft) W-NW 292 10 min 0,000 mm 1102 W/m 14,8 C 19,8 C 12,9 km/h (3 Bft) 100 %
14.05.2017 12:20 20,6 C 19,8 C 20,6 C 72 % 1020,5 hPa 0,0 l/m 6,4 km/h (2 Bft) W 270 10 min 0,000 mm 1111 W/m 15,4 C 20,6 C 17,7 km/h (3 Bft) 100 %
14.05.2017 12:30 20,7 C 20,6 C 20,8 C 68 % 1020,5 hPa 0,0 l/m 8,0 km/h (2 Bft) W-SW 247 10 min 0,000 mm 738 W/m 14,6 C 20,1 C 20,9 km/h (4 Bft) 99 %
14.05.2017 12:40 20,6 C 20,4 C 20,7 C 69 % 1020,5 hPa 0,0 l/m 6,4 km/h (2 Bft) NW 315 10 min 0,000 mm 454 W/m 14,7 C 20,6 C 14,5 km/h (3 Bft) 100 %
14.05.2017 12:50 21,0 C 20,6 C 21,0 C 62 % 1020,5 hPa 0,0 l/m 6,4 km/h (2 Bft) NW 315 10 min 0,000 mm 993 W/m 13,4 C 21,0 C 17,7 km/h (3 Bft) 91 %
14.05.2017 13:00 21,2 C 21,0 C 21,3 C 65 % 1020,6 hPa 0,0 l/m 6,4 km/h (2 Bft) NW 315 10 min 0,483 mm 1000 W/m 14,4 C 21,2 C 11,3 km/h (2 Bft) 100 %
14.05.2017 13:10 20,9 C 20,9 C 21,2 C 64 % 1020,6 hPa 0,0 l/m 4,8 km/h (1 Bft) W-NW 292 10 min 0,000 mm 823 W/m 13,8 C 20,9 C 16,1 km/h (3 Bft) 100 %
14.05.2017 13:20 21,1 C 20,9 C 21,1 C 61 % 1020,7 hPa 0,0 l/m 6,4 km/h (2 Bft) W 270 10 min 0,000 mm 972 W/m 13,3 C 21,1 C 16,1 km/h (3 Bft) 100 %
14.05.2017 13:30 21,3 C 21,1 C 21,3 C 61 % 1020,6 hPa 0,0 l/m 6,4 km/h (2 Bft) NW 315 10 min 0,000 mm 979 W/m 13,5 C 21,3 C 16,1 km/h (3 Bft) 100 %
14.05.2017 13:40 21,7 C 21,3 C 21,7 C 60 % 1020,5 hPa 0,0 l/m 4,8 km/h (1 Bft) NW 315 10 min 0,000 mm 963 W/m 13,6 C 21,7 C 16,1 km/h (3 Bft) 100 %
14.05.2017 13:50 22,0 C 21,3 C 22,0 C 54 % 1020,6 hPa 0,0 l/m 8,1 km/h (2 Bft) N 350 10 min 0,001 mm 854 W/m 12,3 C 21,4 C 12,9 km/h (3 Bft) 98 %
14.05.2017 14:00 22,2 C 22,0 C 22,2 C 52 % 1020,6 hPa 0,0 l/m 4,3 km/h (1 Bft) W-NW 302 10 min 0,508 mm 737 W/m 11,9 C 22,2 C 16,1 km/h (3 Bft) 97 %
14.05.2017 14:10 22,1 C 22,1 C 22,2 C 53 % 1020,4 hPa 0,0 l/m 7,5 km/h (2 Bft) N-NW 335 10 min 0,000 mm 863 W/m 12,1 C 21,7 C 20,9 km/h (4 Bft) 97 %
14.05.2017 14:20 22,3 C 22,1 C 22,3 C 53 % 1020,4 hPa 0,0 l/m 5,3 km/h (1 Bft) S-SW 208 10 min 0,000 mm 895 W/m 12,2 C 22,3 C 16,1 km/h (3 Bft) 98 %
14.05.2017 14:30 22,3 C 22,3 C 22,3 C 53 % 1020,4 hPa 0,0 l/m 6,0 km/h (2 Bft) NW 306 10 min 0,000 mm 877 W/m 12,2 C 22,3 C 20,9 km/h (4 Bft) 97 %
14.05.2017 14:40 22,7 C 22,3 C 22,7 C 51 % 1020,4 hPa 0,0 l/m 7,4 km/h (2 Bft) NW 322 10 min 0,000 mm 891 W/m 12,0 C 22,4 C 19,3 km/h (3 Bft) 97 %
14.05.2017 14:50 22,9 C 22,7 C 22,9 C 50 % 1020,5 hPa 0,0 l/m 4,0 km/h (1 Bft) NW 321 10 min 0,000 mm 772 W/m 11,9 C 22,9 C 16,1 km/h (3 Bft) 98 %
14.05.2017 15:00 22,9 C 22,8 C 22,9 C 49 % 1020,5 hPa 0,0 l/m 6,7 km/h (2 Bft) NW 311 0 min 0,508 mm 114 W/m 11,6 C 22,8 C 20,9 km/h (4 Bft) 97 %
14.05.2017 15:10 22,4 C 22,4 C 22,9 C 51 % 1020,1 hPa 0,0 l/m 1,2 km/h (1 Bft) NW 319 10 min 0,000 mm 163 W/m 11,8 C 22,4 C 9,7 km/h (2 Bft) 98 %
14.05.2017 15:20 22,2 C 22,2 C 22,4 C 50 % 1020,3 hPa 0,0 l/m 3,5 km/h (1 Bft) NW 315 10 min 0,000 mm 169 W/m 11,3 C 22,2 C 16,1 km/h (3 Bft) 98 %
14.05.2017 15:30 22,3 C 22,2 C 22,3 C 52 % 1020,1 hPa 0,0 l/m 0,9 km/h (0 Bft) W 269 0 min 0,000 mm 148 W/m 12,0 C 22,3 C 11,3 km/h (2 Bft) 97 %
14.05.2017 15:40 22,7 C 22,3 C 22,7 C 50 % 1020,3 hPa 0,0 l/m 3,6 km/h (1 Bft) W-SW 252 10 min 0,000 mm 209 W/m 11,7 C 22,7 C 14,5 km/h (3 Bft) 97 %
14.05.2017 15:50 22,6 C 22,6 C 22,7 C 52 % 1020,4 hPa 0,0 l/m 5,3 km/h (1 Bft) W-NW 300 10 min 0,000 mm 243 W/m 12,2 C 22,6 C 17,7 km/h (3 Bft) 97 %
14.05.2017 16:00 22,6 C 22,6 C 22,7 C 50 % 1020,5 hPa 0,0 l/m 9,2 km/h (2 Bft) S 188 10 min 0,152 mm 557 W/m 11,6 C 21,7 C 19,3 km/h (3 Bft) 97 %
14.05.2017 16:10 22,2 C 22,2 C 22,6 C 52 % 1020,5 hPa 0,0 l/m 7,5 km/h (2 Bft) W-NW 298 10 min 0,000 mm 492 W/m 11,9 C 21,8 C 19,3 km/h (3 Bft) 98 %
14.05.2017 16:20 22,1 C 22,1 C 22,3 C 50 % 1020,5 hPa 0,0 l/m 7,1 km/h (2 Bft) SW 217 10 min 0,000 mm 186 W/m 11,2 C 21,9 C 17,7 km/h (3 Bft) 97 %
14.05.2017 16:30 21,4 C 21,4 C 22,1 C 51 % 1020,5 hPa 0,0 l/m 8,5 km/h (2 Bft) S-SW 211 10 min 0,000 mm 193 W/m 10,8 C 20,7 C 19,3 km/h (3 Bft) 98 %
14.05.2017 16:40 20,9 C 20,9 C 21,4 C 51 % 1020,6 hPa 0,0 l/m 6,3 km/h (2 Bft) W-NW 301 0 min 0,000 mm 107 W/m 10,4 C 20,9 C 16,1 km/h (3 Bft) 97 %
14.05.2017 16:50 20,3 C 20,3 C 20,9 C 60 % 1021,5 hPa 0,0 l/m 18,2 km/h (3 Bft) W 267 0 min 0,000 mm 16 W/m 12,3 C 16,9 C 48,3 km/h (6 Bft) 97 %
14.05.2017 17:00 17,7 C 17,7 C 20,3 C 70 % 1021,8 hPa 0,0 l/m 23,1 km/h (4 Bft) W-NW 299 0 min 0,203 mm 14 W/m 12,2 C 12,6 C 46,7 km/h (6 Bft) 97 %
14.05.2017 17:10 16,0 C 16,0 C 17,7 C 80 % 1022,3 hPa 1,4 l/m 10,1 km/h (2 Bft) NW 309 0 min 0,000 mm 32 W/m 12,5 C 14,2 C 25,7 km/h (4 Bft) 98 %
14.05.2017 17:20 14,8 C 14,8 C 16,0 C 85 % 1021,8 hPa 0,4 l/m 0,0 km/h (0 Bft) N-NW 339 0 min 0,000 mm 149 W/m 12,3 C 14,8 C 3,2 km/h (1 Bft) 97 %
14.05.2017 17:30 14,4 C 14,4 C 14,8 C 88 % 1021,7 hPa 0,2 l/m 0,0 km/h (0 Bft) N-NW 344 10 min 0,000 mm 183 W/m 12,4 C 14,4 C 0,0 km/h (0 Bft) 96 %
14.05.2017 17:40 14,5 C 14,3 C 14,5 C 90 % 1021,7 hPa 0,0 l/m 0,0 km/h (0 Bft) N-NW 344 10 min 0,000 mm 262 W/m 12,9 C 14,5 C 0,0 km/h (0 Bft) 97 %
14.05.2017 17:50 15,1 C 14,5 C 15,1 C 90 % 1021,7 hPa 0,0 l/m 0,0 km/h (0 Bft) N-NW 346 10 min 0,000 mm 290 W/m 13,5 C 15,1 C 0,0 km/h (0 Bft) 97 %
14.05.2017 18:00 15,3 C 15,1 C 15,3 C 90 % 1021,7 hPa 0,0 l/m 0,4 km/h (0 Bft) N-NW 333 10 min 0,102 mm 230 W/m 13,7 C 15,3 C 4,8 km/h (1 Bft) 97 %
14.05.2017 18:10 15,5 C 15,3 C 15,6 C 89 % 1021,7 hPa 0,0 l/m 0,1 km/h (0 Bft) N-NW 334 10 min 0,000 mm 192 W/m 13,7 C 15,5 C 4,8 km/h (1 Bft) 97 %
14.05.2017 18:20 15,6 C 15,5 C 15,6 C 89 % 1021,5 hPa 0,0 l/m 0,0 km/h (0 Bft) N-NW 334 10 min 0,000 mm 214 W/m 13,8 C 15,6 C 0,0 km/h (0 Bft) 97 %
14.05.2017 18:30 15,8 C 15,6 C 15,8 C 89 % 1021,7 hPa 0,0 l/m 0,0 km/h (0 Bft) N-NW 334 10 min 0,000 mm 209 W/m 14,0 C 15,8 C 0,0 km/h (0 Bft) 97 %
14.05.2017 18:40 16,2 C 15,8 C 16,2 C 89 % 1021,7 hPa 0,0 l/m 0,0 km/h (0 Bft) N-NW 335 10 min 0,000 mm 199 W/m 14,4 C 16,2 C 1,6 km/h (1 Bft) 98 %
14.05.2017 18:50 16,4 C 16,2 C 16,4 C 87 % 1021,7 hPa 0,0 l/m 0,0 km/h (0 Bft) N 349 0 min 0,000 mm 90 W/m 14,2 C 16,4 C 1,6 km/h (1 Bft) 98 %
14.05.2017 19:00 16,4 C 16,4 C 16,4 C 86 % 1021,7 hPa 0,0 l/m 0,0 km/h (0 Bft) N 349 0 min 0,101 mm 93 W/m 14,1 C 16,4 C 0,0 km/h (0 Bft) 99 %
14.05.2017 19:10 16,4 C 16,4 C 16,5 C 87 % 1021,9 hPa 0,0 l/m 0,8 km/h (0 Bft) S-SW 203 0 min 0,000 mm 88 W/m 14,2 C 16,4 C 6,4 km/h (2 Bft) 100 %
14.05.2017 19:20 16,0 C 16,0 C 16,4 C 88 % 1022,0 hPa 0,0 l/m 4,2 km/h (1 Bft) SO 139 0 min 0,000 mm 77 W/m 14,0 C 16,0 C 14,5 km/h (3 Bft) 100 %
14.05.2017 19:30 15,2 C 15,2 C 16,0 C 87 % 1022,0 hPa 0,0 l/m 5,8 km/h (2 Bft) S-SO 159 0 min 0,000 mm 86 W/m 13,0 C 15,2 C 16,1 km/h (3 Bft) 100 %
14.05.2017 19:40 15,1 C 15,1 C 15,2 C 88 % 1022,1 hPa 0,0 l/m 0,5 km/h (0 Bft) SO 145 0 min 0,000 mm 72 W/m 13,1 C 15,1 C 8,0 km/h (2 Bft) 99 %
14.05.2017 19:50 15,1 C 15,1 C 15,1 C 87 % 1022,4 hPa 0,0 l/m 0,0 km/h (0 Bft) S-SO 148 0 min 0,000 mm 60 W/m 13,0 C 15,1 C 0,0 km/h (0 Bft) 100 %
14.05.2017 20:00 15,0 C 15,0 C 15,1 C 88 % 1022,5 hPa 0,0 l/m 0,0 km/h (0 Bft) S-SO 148 0 min 0,051 mm 54 W/m 13,0 C 15,0 C 0,0 km/h (0 Bft) 100 %
14.05.2017 20:10 14,9 C 14,9 C 15,0 C 88 % 1022,7 hPa 0,0 l/m 0,0 km/h (0 Bft) S-SO 148 0 min 0,000 mm 37 W/m 12,9 C 14,9 C 0,0 km/h (0 Bft) 99 %
14.05.2017 20:20 14,6 C 14,6 C 14,9 C 89 % 1022,6 hPa 0,0 l/m 0,0 km/h (0 Bft) S-SO 148 0 min 0,000 mm 19 W/m 12,8 C 14,6 C 0,0 km/h (0 Bft) 100 %
14.05.2017 20:30 14,2 C 14,2 C 14,6 C 89 % 1022,7 hPa 0,0 l/m 0,0 km/h (0 Bft) S-SO 148 0 min 0,000 mm 11 W/m 12,4 C 14,2 C 0,0 km/h (0 Bft) 100 %
14.05.2017 20:40 14,0 C 14,0 C 14,2 C 89 % 1022,9 hPa 0,0 l/m 0,0 km/h (0 Bft) S-SO 147 0 min 0,000 mm 7 W/m 12,2 C 14,0 C 0,0 km/h (0 Bft) 100 %
14.05.2017 20:50 13,8 C 13,8 C 14,0 C 89 % 1023,0 hPa 0,0 l/m 0,0 km/h (0 Bft) S-SO 148 0 min 0,000 mm 0 W/m 12,0 C 13,8 C 0,0 km/h (0 Bft) 99 %
14.05.2017 21:00 13,5 C 13,5 C 13,8 C 90 % 1023,1 hPa 0,0 l/m 0,0 km/h (0 Bft) S-SO 147 0 min 0,000 mm 0 W/m 11,9 C 13,5 C 0,0 km/h (0 Bft) 100 %
14.05.2017 21:10 13,3 C 13,3 C 13,5 C 90 % 1023,2 hPa 0,0 l/m 0,0 km/h (0 Bft) N 0 0 min 0,000 mm 0 W/m 11,7 C 13,3 C 0,0 km/h (0 Bft) 100 %
14.05.2017 21:20 13,3 C 13,2 C 13,3 C 90 % 1023,5 hPa 0,0 l/m 0,0 km/h (0 Bft) N 0 0 min 0,000 mm 0 W/m 11,7 C 13,3 C 0,0 km/h (0 Bft) 100 %
14.05.2017 21:30 13,2 C 13,2 C 13,3 C 90 % 1023,6 hPa 0,0 l/m 0,0 km/h (0 Bft) N 0 0 min 0,000 mm 0 W/m 11,6 C 13,2 C 0,0 km/h (0 Bft) 100 %
14.05.2017 21:40 13,0 C 13,0 C 13,2 C 90 % 1023,6 hPa 0,0 l/m 0,0 km/h (0 Bft) N 0 0 min 0,000 mm 0 W/m 11,4 C 13,0 C 0,0 km/h (0 Bft) 100 %
14.05.2017 21:50 12,8 C 12,8 C 13,0 C 90 % 1023,7 hPa 0,0 l/m 0,0 km/h (0 Bft) N 0 0 min 0,000 mm 0 W/m 11,2 C 12,8 C 0,0 km/h (0 Bft) 100 %
14.05.2017 22:00 12,9 C 12,8 C 12,9 C 91 % 1023,8 hPa 0,0 l/m 0,0 km/h (0 Bft) S-SO 157 0 min 0,000 mm 0 W/m 11,5 C 12,9 C 1,6 km/h (1 Bft) 100 %
14.05.2017 22:10 13,0 C 12,9 C 13,0 C 91 % 1023,6 hPa 0,0 l/m 0,0 km/h (0 Bft) N 0 0 min 0,000 mm 0 W/m 11,6 C 13,0 C 0,0 km/h (0 Bft) 99 %
14.05.2017 22:20 13,0 C 13,0 C 13,1 C 91 % 1023,8 hPa 0,0 l/m 0,0 km/h (0 Bft) N 0 0 min 0,000 mm 0 W/m 11,6 C 13,0 C 0,0 km/h (0 Bft) 100 %
14.05.2017 22:30 12,8 C 12,7 C 13,0 C 91 % 1023,9 hPa 0,0 l/m 0,0 km/h (0 Bft) N 0 0 min 0,000 mm 0 W/m 11,4 C 12,8 C 0,0 km/h (0 Bft) 100 %
14.05.2017 22:40 12,6 C 12,6 C 12,7 C 91 % 1024,0 hPa 0,0 l/m 0,0 km/h (0 Bft) N 0 0 min 0,000 mm 0 W/m 11,2 C 12,6 C 0,0 km/h (0 Bft) 100 %
14.05.2017 22:50 12,3 C 12,3 C 12,6 C 91 % 1024,1 hPa 0,0 l/m 0,0 km/h (0 Bft) N 0 0 min 0,000 mm 0 W/m 10,9 C 12,3 C 0,0 km/h (0 Bft) 100 %
14.05.2017 23:00 12,2 C 12,2 C 12,3 C 91 % 1024,3 hPa 0,0 l/m 0,0 km/h (0 Bft) N 0 0 min 0,000 mm 0 W/m 10,8 C 12,2 C 0,0 km/h (0 Bft) 100 %
14.05.2017 23:10 12,1 C 12,1 C 12,1 C 91 % 1024,3 hPa 0,0 l/m 0,0 km/h (0 Bft) N 0 0 min 0,000 mm 0 W/m 10,7 C 12,1 C 0,0 km/h (0 Bft) 100 %
14.05.2017 23:20 12,0 C 12,0 C 12,1 C 91 % 1024,2 hPa 0,0 l/m 0,0 km/h (0 Bft) N 0 0 min 0,000 mm 0 W/m 10,6 C 12,0 C 0,0 km/h (0 Bft) 100 %
14.05.2017 23:30 11,9 C 11,9 C 12,0 C 91 % 1024,3 hPa 0,0 l/m 0,0 km/h (0 Bft) N 0 0 min 0,000 mm 0 W/m 10,5 C 11,9 C 0,0 km/h (0 Bft) 100 %
14.05.2017 23:40 11,8 C 11,8 C 11,9 C 91 % 1024,3 hPa 0,0 l/m 0,0 km/h (0 Bft) N 0 0 min 0,000 mm 0 W/m 10,4 C 11,8 C 0,0 km/h (0 Bft) 100 %
14.05.2017 23:50 11,7 C 11,7 C 11,8 C 91 % 1024,4 hPa 0,0 l/m 0,0 km/h (0 Bft) N 0 0 min 0,000 mm 0 W/m 10,3 C 11,7 C 0,0 km/h (0 Bft) 100 %
_ Min-Zeit 23:50 23:50 23:50 15:00 00:00 - 00:00 - - - - - 23:50 23:50 00:00 12:50
Minimum _ 11,7 C 11,7 C 11,8 C 49 % 1015,5 hPa - 0,0 km/h (0 Bft) - - - - - 10,3 C 11,7 C 0,0 km/h (0 Bft) 91 %
_ Max-Zeit 14:50 15:00 14:50 02:10 23:50 17:10 17:00 - - 08:30 14:00 12:20 12:00 14:50 16:50 00:00
Maximum _ 22,9 C 22,8 C 22,9 C 91 % 1024,4 hPa 1,4 l/m 23,1 km/h
W-NW (4 Bft)
- - 10 min 0,508 mm 1111 W/m 15,6 C 22,9 C 48,3 km/h
W-NW (6 Bft)
100 %
Durchschnitt _ 15,6 C 15,5 C 15,7 C 82 % 1020,0 hPa #2,2 l/m 2,3 km/h (1 Bft) SW - #9:10 h #2,997 mm 360 W/m 12,3 C 15,5 C 7,4 km/h (2 Bft) 99 %
PRIVATE WETTERSTATION BILLIGHEIM-ALLFELD - www.neckar-odenwald-wetter.de - Holger Sonntag